Regional Weather Roundup
Issued by NWS

Home | Current Version | Previous Version | Text Only | Print | Product List | Glossary On
Versions: 1 2 3 4 5 6 7 8 9 10 11 12 13 14 15 16 17 18 19 20 21 22 23 24 25 26 27 28 29 30 31 32 33 34 35 36 37 38 39 40 41 42 43 44 45 46 47 48 49 50
000
ASUS46 KSEW 031710
RWRWA

WASHINGTON REGIONAL WEATHER ROUNDUP
NATIONAL WEATHER SERVICE SEATTLE WA
1000 AM PDT WED JUN 03 2015

NOTE:"FAIR" INDICATES FEW OR NO CLOUDS BELOW 12,000 FEET WITH NO
SIGNIFICANT WEATHER AND/OR OBSTRUCTIONS TO VISIBILITY.

WAZ505-507>509-031800-
SEATTLE, TACOMA, EVERETT, AND VICINITY

CITY           SKY/WX    TMP DP  RH WIND       PRES   REMARKS
EVERETT        CLOUDY    54  50  86 VRB3      30.09R FOG
BOEING FIELD   CLOUDY    59  49  69 W5        30.08S
RENTON         CLOUDY    58  49  72 SW5       30.07S
SEATAC AIRPORT CLOUDY    57  48  72 SW6       30.08S
JBLM-MCCHORD   CLOUDY    58  51  78 S7        30.07S
PUYALLUP       CLOUDY    57  54  88 W5        30.08S
BREMERTON      CLOUDY    54  54 100 CALM      30.11S
JBLM-FT LEWIS  CLOUDY    58  52  80 S6        30.07S
TACOMA NARROWS CLOUDY    56  49  77 S6        30.08S
$$

WAZ001-503-506-510-514-515-031800-
NORTH INTERIOR

CITY           SKY/WX    TMP DP  RH WIND       PRES   REMARKS
BELLINGHAM     CLOUDY    57  51  80 S10       30.05S
FRIDAY HARBOR  CLOUDY    57  50  77 E6        30.07R
EASTSOUND      CLOUDY    57  50  77 S5        30.04S
PORT ANGELES   CLOUDY    56  50  80 NW8       30.08S
PORT TOWNSEND  CLOUDY    55  54  94 W5        30.08S
NAS WHIDBEY    CLOUDY    57  54  89 SW12      30.11S
ARLINGTON      CLOUDY    55  48  76 CALM      30.09S
BURLINGTON     CLOUDY    55  54  94 S6        30.07S
$$

WAZ020-022-039-040-504-511-512-031800-
SOUTHWEST INTERIOR

CITY           SKY/WX    TMP DP  RH WIND       PRES   REMARKS
SHELTON        CLOUDY    56  50  80 VRB3      30.06R
OLYMPIA        CLOUDY    57  49  74 SW6       30.08S
CHEHALIS       CLOUDY    61  52  72 CALM      30.09S
KELSO          CLOUDY    57  52  82 NW3       30.12S
VANCOUVER      CLOUDY    58  52  80 CALM      30.09S
SCAPPOOSE, OR  CLOUDY    59  52  77 CALM      30.08S
PORTLAND, OR   CLOUDY    58  53  84 VRB3      30.09S
$$

WAZ021-516-517-031800-
WASHINGTON COAST

CITY           SKY/WX    TMP DP  RH WIND       PRES   REMARKS
FORKS          CLOUDY    56  52  86 CALM      30.08S
HOQUIAM        CLOUDY    56  51  84 W6        30.09S HAZE
ASTORIA, OR    LGT RAIN  57  52  83 W5        30.09S
$$

WAZ019-023-024-040-518-519-031800-
CASCADE MOUNTAINS AND COLUMBIA GORGE

CITY           SKY/WX    TMP DP  RH WIND       PRES   REMARKS
TROUTDALE, OR  LGT RAIN  57  52  83 CALM      30.08S
THE DALLES, OR SUNNY     67  47  48 NW13G21   30.02F
$$

WAZ026-027-041>044-520-521-031800-
EAST SLOPES

CITY           SKY/WX    TMP DP  RH WIND       PRES   REMARKS
OMAK           PTSUNNY   62  52  69 CALM      29.95S
WENATCHEE      CLOUDY    66  40  38 W10       29.96F
ELLENSBURG     PTSUNNY   64  44  48 NW21      29.98F
YAKIMA         PTSUNNY   67  42  40 NW10      29.99F
$$

WAZ028-034-035-031800-
COLUMBIA BASIN

CITY           SKY/WX    TMP DP  RH WIND       PRES   REMARKS
EPHRATA        CLOUDY    66  42  41 N3        29.95F
MOSES LAKE     SUNNY     67  44  43 S6        29.97F
PASCO          MOSUNNY   67  44  43 W7        29.99F
HERMISTON, OR  MOSUNNY   66  44  45 W14       29.99F
$$

WAZ036>038-031800-
NORTHEAST WASHINGTON

CITY           SKY/WX    TMP DP  RH WIND       PRES   REMARKS
SPOKANE GEIGER MOSUNNY   59  43  55 S13       30.00S
SPOKANE FELTS  PTSUNNY   60  46  59 VRB6      30.00F
FAIRCHILD AFB  MOSUNNY   59  45  59 S12G18    29.99F
COEURDALENE,ID CLOUDY    57  46  67 S6        30.00S
DEER PARK      CLOUDY    57  47  69 S10       30.01F
$$

WAZ029>033-031800-
SOUTHEAST WASHINGTON

CITY           SKY/WX    TMP DP  RH WIND       PRES   REMARKS
PULLMAN        CLOUDY    55  46  71 N6        30.04S
LEWISTON, ID   CLOUDY    62  47  57 NE3       30.00F
WALLA WALLA    PTSUNNY   64  43  46 SW13G23   30.01F
PENDLETON, OR  PTSUNNY   63  43  48 W12       30.01F
$$


USA.gov is the U.S. government's official web portal to all federal, state and local government web resources and services.